[ hide orbit diagram ]
For accurate long-term ephemerides, please instead use our Horizons system.This orbit viewer was implemented using two-body methods, and hence should not be used for determining accurate long-term trajectories (over several years or decades) or planetary encounter circumstances.
Orbital Elements at Epoch 2459200.5 (2020-Dec-17.0) TDB
Reference: JPL 29 (heliocentric ecliptic J2000)
Element | Value | Uncertainty (1-sigma) | Units |
e | .1297133997388042 | 3.3714e-08 | |
a | 2.311022945306338 | 7.3608e-09 | au |
q | 2.011252302196269 | 7.816e-08 | au |
i | 7.326168804207524 | 4.2014e-06 | deg |
node | .2557219872528435 | 3.1199e-05 | deg |
peri | 17.04799991469694 | 3.559e-05 | deg |
M | 86.67024555489232 | 1.731e-05 | deg |
tp | 2458891.561282521558 (2020-Feb-12.06128252) | 6.1455e-05 | TDB |
period | 1283.230912525792 3.51 | 6.1308e-06 1.679e-08 | d yr |
n | .2805418701232887 | 1.3403e-09 | deg/d |
Q | 2.610793588416408 | 8.3156e-09 | au |
|
| | Orbit Determination Parameters
Additional Information
|
[ show covariance matrix ]
Physical Parameter Table
Parameter |
Symbol |
Value |
Units |
Sigma |
Reference |
Notes |
absolute magnitude |
H |
14.7 |
|
n/a |
MPO526085 |
|
diameter |
diameter |
2.296 |
km |
0.361 |
urn:nasa:pds:neowise_diameters_albedos::2.0[mainbelt] (http://adsabs.harvard.edu/abs/2011ApJ...741...68M) |
|
geometric albedo |
albedo |
0.582 |
|
0.110 |
urn:nasa:pds:neowise_diameters_albedos::2.0[mainbelt] (http://adsabs.harvard.edu/abs/2011ApJ...741...68M) |
|
|
14079 (1997 FV3) Discovered 1997-Mar-31 by LINEAR at Socorro |
Reference: 20000320/Numbers.arc | Last Updated: 2004-04-19 |
|
[ show close-approach data ]
|